Language: 


Des rapports , des résumés tant et plus, au choix de chacun....


Données statistiques de la station
Quotidien Rapport Novembre 5, 2017 Unités:  Métrique    Anglais   les deux
« Précédent Jour
Suivant Jour »
Quotidien Hebdomadaire Mensuel Annuel Actuel
  Haut: Bas: Moyen:
Température: 11.8 °C 0.0 °C 7.6 °C
Pt de rosée: 10.0 °C 3.0 °C 6 °C
Humidité: 98 % 0 % 88 %
Vitesse du vent: 21.2 km/h 0.0 km/h 5.8 km/h
Rafales: 21.2 km/h - -
Vent:- - WSW
Pression: 1018.8 hPa 0.0 hPa -
Précipitation: 0.3 mm    
Historical Graphs
 
 
Données statistiques pour Novembre 5, 2017
Heure Température Point de rosée Pression Vent Vitesse du vent Refales Humidité Pluie (taux horaire)
00:04 9.9 °C 10.0 °C 1007.0 hPa Calm   4.7 km/h 98 % 0.0 mm
00:09 9.9 °C 10.0 °C 1007.0 hPa SW 5.8 km/h 8.7 km/h 98 % 0.0 mm
00:14 9.9 °C 10.0 °C 1007.0 hPa West 5.0 km/h 8.7 km/h 98 % 0.0 mm
00:19 9.9 °C 10.0 °C 1007.0 hPa West 5.5 km/h 9.0 km/h 98 % 0.0 mm
00:24 9.9 °C 10.0 °C 1007.0 hPa WSW 2.6 km/h 10.1 km/h 98 % 0.0 mm
00:25 9.9 °C 10.0 °C 1007.0 hPa WNW 6.4 km/h 10.1 km/h 98 % 0.0 mm
00:30 9.9 °C 10.0 °C 1007.0 hPa West 2.1 km/h 11.6 km/h 98 % 0.0 mm
00:35 9.9 °C 10.0 °C 1007.0 hPa West 3.2 km/h 11.6 km/h 98 % 0.0 mm
00:40 9.9 °C 10.0 °C 1007.0 hPa WSW 4.0 km/h 8.7 km/h 98 % 0.0 mm
00:45 9.9 °C 10.0 °C 1007.0 hPa Calm   7.6 km/h 98 % 0.0 mm
00:50 9.9 °C 10.0 °C 1007.0 hPa Calm   6.4 km/h 98 % 0.0 mm
00:55 9.8 °C 10.0 °C 1007.0 hPa WNW 11.6 km/h 11.6 km/h 98 % 0.0 mm
01:00 9.8 °C 10.0 °C 1007.0 hPa West 7.9 km/h 11.6 km/h 98 % 0.0 mm
01:05 9.8 °C 10.0 °C 1007.0 hPa Calm   10.1 km/h 98 % 0.0 mm
01:10 9.8 °C 10.0 °C 1007.0 hPa West 1.4 km/h 10.1 km/h 98 % 0.0 mm
01:15 9.7 °C 10.0 °C 1007.0 hPa West 7.9 km/h 9.7 km/h 98 % 0.0 mm
01:20 9.7 °C 10.0 °C 1007.0 hPa WNW 9.0 km/h 9.3 km/h 98 % 0.0 mm
01:25 9.7 °C 10.0 °C 1007.0 hPa Calm   9.3 km/h 98 % 0.0 mm
01:30 9.6 °C 10.0 °C 1007.0 hPa Calm   7.6 km/h 98 % 0.0 mm
01:35 9.6 °C 10.0 °C 1007.0 hPa West 6.4 km/h 8.7 km/h 98 % 0.0 mm
01:40 9.6 °C 10.0 °C 1007.0 hPa West 7.9 km/h 9.7 km/h 98 % 0.0 mm
01:45 9.5 °C 10.0 °C 1007.0 hPa West 8.7 km/h 9.7 km/h 98 % 0.0 mm
01:50 9.5 °C 10.0 °C 1007.0 hPa WSW 7.9 km/h 9.3 km/h 98 % 0.0 mm
01:55 9.5 °C 10.0 °C 1007.0 hPa West 7.9 km/h 9.3 km/h 98 % 0.0 mm
02:00 9.5 °C 10.0 °C 1007.0 hPa West 6.4 km/h 9.0 km/h 98 % 0.0 mm
02:05 9.5 °C 10.0 °C 1007.0 hPa Calm   9.7 km/h 98 % 0.0 mm
02:10 9.5 °C 10.0 °C 1007.0 hPa WSW 6.4 km/h 9.7 km/h 98 % 0.0 mm
02:15 9.4 °C 9.0 °C 1007.0 hPa Calm   9.7 km/h 98 % 0.0 mm
02:20 9.4 °C 9.0 °C 1007.0 hPa Calm   9.0 km/h 98 % 0.0 mm
02:25 9.4 °C 9.0 °C 1007.0 hPa West 3.2 km/h 9.7 km/h 98 % 0.0 mm
02:31 9.4 °C 9.0 °C 1007.0 hPa Calm   9.7 km/h 98 % 0.0 mm
02:36 9.3 °C 9.0 °C 1007.0 hPa West 5.5 km/h 10.1 km/h 98 % 0.0 mm
02:41 9.3 °C 9.0 °C 1007.0 hPa West 10.5 km/h 12.6 km/h 98 % 0.0 mm
02:46 9.3 °C 9.0 °C 1007.0 hPa WSW 7.6 km/h 12.6 km/h 98 % 0.0 mm
02:51 9.3 °C 9.0 °C 1007.0 hPa West 10.5 km/h 13.0 km/h 98 % 0.0 mm
02:56 9.3 °C 9.0 °C 1007.0 hPa WNW 14.0 km/h 14.0 km/h 98 % 0.0 mm
03:01 0.0 °C 9.0 °C 0.0 hPa West 7.9 km/h 13.7 km/h 0 % 0.0 mm
03:06 9.1 °C 9.0 °C 1007.0 hPa West 11.1 km/h 15.8 km/h 98 % 0.0 mm
03:11 9.1 °C 9.0 °C 1006.0 hPa West 12.2 km/h 15.8 km/h 98 % 0.0 mm
03:17 9.0 °C 9.0 °C 1006.0 hPa WNW 5.0 km/h 14.0 km/h 98 % 0.0 mm
03:22 9.0 °C 9.0 °C 1006.0 hPa West 5.5 km/h 12.6 km/h 98 % 0.0 mm
03:27 8.9 °C 9.0 °C 1006.0 hPa Calm   11.1 km/h 98 % 0.0 mm
03:32 8.8 °C 9.0 °C 1006.0 hPa WSW 6.4 km/h 13.0 km/h 98 % 0.0 mm
03:37 8.7 °C 9.0 °C 1006.0 hPa SSW 5.0 km/h 13.0 km/h 98 % 0.0 mm
03:42 8.6 °C 9.0 °C 1007.0 hPa West 6.1 km/h 12.6 km/h 98 % 0.0 mm
03:47 8.6 °C 9.0 °C 1007.0 hPa West 4.7 km/h 11.9 km/h 98 % 0.0 mm
03:53 8.4 °C 9.0 °C 1007.0 hPa West 4.7 km/h 11.9 km/h 98 % 0.0 mm
03:58 8.3 °C 9.0 °C 1007.0 hPa West 6.9 km/h 13.0 km/h 98 % 0.0 mm
04:03 8.2 °C 8.0 °C 1007.0 hPa NW 4.3 km/h 13.0 km/h 98 % 0.0 mm
04:08 8.2 °C 8.0 °C 1007.0 hPa West 9.7 km/h 13.0 km/h 98 % 0.0 mm
04:14 8.1 °C 8.0 °C 1007.0 hPa WNW 7.6 km/h 11.9 km/h 98 % 0.0 mm
04:19 7.9 °C 8.0 °C 1007.0 hPa WSW 9.7 km/h 11.6 km/h 98 % 0.0 mm
04:22 7.9 °C 8.0 °C 1007.0 hPa WNW 4.7 km/h 11.6 km/h 98 % 0.0 mm
04:24 7.8 °C 8.0 °C 1007.0 hPa West 5.8 km/h 11.6 km/h 98 % 0.0 mm
04:28 7.8 °C 8.0 °C 1007.0 hPa West 1.8 km/h 9.7 km/h 98 % 0.0 mm
04:33 7.7 °C 8.0 °C 1007.0 hPa Calm   9.0 km/h 98 % 0.0 mm
04:38 7.5 °C 8.0 °C 1007.0 hPa West 6.1 km/h 9.0 km/h 98 % 0.0 mm
04:43 7.4 °C 7.0 °C 1007.0 hPa West 9.7 km/h 10.5 km/h 98 % 0.0 mm
04:48 7.3 °C 7.0 °C 1007.0 hPa WNW 5.5 km/h 10.5 km/h 98 % 0.0 mm
04:53 7.1 °C 7.0 °C 1007.0 hPa WNW 4.0 km/h 9.7 km/h 98 % 0.0 mm
04:58 6.9 °C 7.0 °C 1007.0 hPa West 4.7 km/h 9.0 km/h 98 % 0.0 mm
05:03 6.8 °C 7.0 °C 1007.0 hPa West 4.3 km/h 9.0 km/h 98 % 0.0 mm
05:08 6.7 °C 7.0 °C 1007.0 hPa Calm   9.3 km/h 98 % 0.0 mm
05:13 6.6 °C 7.0 °C 1007.0 hPa West 6.1 km/h 9.3 km/h 98 % 0.0 mm
05:18 6.5 °C 7.0 °C 1007.0 hPa West 3.5 km/h 9.0 km/h 98 % 0.0 mm
05:23 6.4 °C 6.0 °C 1007.0 hPa Calm   9.0 km/h 98 % 0.0 mm
05:28 6.1 °C 6.0 °C 1007.0 hPa Calm   7.9 km/h 98 % 0.0 mm
05:33 5.9 °C 6.0 °C 1007.0 hPa Calm   5.8 km/h 98 % 0.0 mm
05:38 5.8 °C 6.0 °C 1007.0 hPa Calm   6.4 km/h 98 % 0.0 mm
05:43 5.7 °C 6.0 °C 1008.0 hPa Calm   7.9 km/h 98 % 0.0 mm
05:49 5.4 °C 6.0 °C 1008.0 hPa Calm   7.9 km/h 98 % 0.0 mm
05:54 5.2 °C 5.0 °C 1008.0 hPa Calm   5.5 km/h 98 % 0.0 mm
05:59 5.0 °C 5.0 °C 1007.0 hPa Calm     98 % 0.0 mm
06:04 5.0 °C 5.0 °C 1007.0 hPa Calm     98 % 0.0 mm
06:09 5.0 °C 5.0 °C 1007.0 hPa Calm     98 % 0.0 mm
06:14 4.9 °C 5.0 °C 1008.0 hPa West 5.8 km/h 5.8 km/h 98 % 0.0 mm
06:19 4.8 °C 5.0 °C 1008.0 hPa West 5.8 km/h 5.8 km/h 98 % 0.0 mm
06:24 4.7 °C 5.0 °C 1008.0 hPa West 5.8 km/h 5.8 km/h 98 % 0.0 mm
06:29 4.5 °C 5.0 °C 1008.0 hPa West 5.8 km/h 5.8 km/h 98 % 0.0 mm
06:34 4.4 °C 4.0 °C 1008.0 hPa West 5.8 km/h 5.8 km/h 98 % 0.0 mm
06:39 4.4 °C 4.0 °C 1008.0 hPa West 9.0 km/h 9.0 km/h 98 % 0.0 mm
06:44 4.4 °C 4.0 °C 1008.0 hPa West 5.8 km/h 9.0 km/h 98 % 0.0 mm
06:49 4.4 °C 4.0 °C 1008.0 hPa West 6.9 km/h 9.0 km/h 98 % 0.0 mm
06:54 4.4 °C 4.0 °C 1008.0 hPa WSW 1.4 km/h 6.9 km/h 98 % 0.0 mm
06:55 4.3 °C 4.0 °C 1008.0 hPa West 4.7 km/h 6.9 km/h 98 % 0.0 mm
07:00 4.2 °C 4.0 °C 1009.0 hPa West 7.9 km/h 7.9 km/h 98 % 0.0 mm
07:01 4.1 °C 4.0 °C 1009.0 hPa WSW 6.9 km/h 7.9 km/h 98 % 0.0 mm
07:06 4.1 °C 4.0 °C 1009.0 hPa West 6.1 km/h 7.9 km/h 98 % 0.0 mm
07:11 4.1 °C 4.0 °C 1008.0 hPa West 6.1 km/h 7.9 km/h 98 % 0.0 mm
07:16 4.1 °C 4.0 °C 1008.0 hPa West 6.1 km/h 7.9 km/h 98 % 0.0 mm
07:21 4.2 °C 4.0 °C 1008.0 hPa Calm   8.7 km/h 98 % 0.0 mm
07:26 4.2 °C 4.0 °C 1009.0 hPa Calm   8.7 km/h 98 % 0.0 mm
07:31 4.0 °C 4.0 °C 1009.0 hPa Calm     98 % 0.0 mm
07:36 3.8 °C 4.0 °C 1009.0 hPa Calm     98 % 0.0 mm
07:41 3.8 °C 4.0 °C 1009.0 hPa Calm     98 % 0.0 mm
07:46 3.9 °C 4.0 °C 1009.0 hPa Calm     98 % 0.0 mm
07:51 3.9 °C 4.0 °C 1009.0 hPa Calm     98 % 0.0 mm
07:56 4.1 °C 4.0 °C 1009.0 hPa Calm     98 % 0.0 mm
08:01 4.1 °C 4.0 °C 1009.0 hPa Calm     98 % 0.0 mm
08:07 4.1 °C 4.0 °C 1009.0 hPa Calm     98 % 0.0 mm
08:12 4.3 °C 4.0 °C 1009.0 hPa Calm     98 % 0.0 mm
08:17 4.4 °C 4.0 °C 1009.0 hPa Calm     98 % 0.0 mm
08:22 4.6 °C 5.0 °C 1009.0 hPa Calm     98 % 0.0 mm
08:27 4.8 °C 5.0 °C 1010.0 hPa Calm     98 % 0.0 mm
08:32 5.0 °C 5.0 °C 1010.0 hPa Calm     98 % 0.0 mm
08:37 5.1 °C 5.0 °C 1010.0 hPa Calm     98 % 0.0 mm
08:42 5.3 °C 6.0 °C 1010.0 hPa Calm     98 % 0.0 mm
08:47 5.4 °C 6.0 °C 1010.0 hPa Calm     98 % 0.0 mm
08:52 5.6 °C 6.0 °C 1010.0 hPa Calm     98 % 0.0 mm
08:57 5.9 °C 6.0 °C 1010.0 hPa Calm     98 % 0.0 mm
09:02 6.0 °C 6.0 °C 1010.0 hPa Calm     98 % 0.0 mm
09:07 6.2 °C 6.0 °C 1010.0 hPa Calm     98 % 0.0 mm
09:12 6.3 °C 6.0 °C 1010.0 hPa Calm     98 % 0.0 mm
09:17 6.3 °C 6.0 °C 1010.0 hPa Calm     98 % 0.0 mm
09:22 6.3 °C 6.0 °C 1010.0 hPa Calm     98 % 0.0 mm
09:27 6.3 °C 6.0 °C 1010.0 hPa Calm     98 % 0.0 mm
09:32 6.4 °C 6.0 °C 1010.0 hPa Calm     98 % 0.0 mm
09:37 6.5 °C 7.0 °C 1010.0 hPa Calm     98 % 0.0 mm
09:42 6.7 °C 7.0 °C 1011.1 hPa Calm     98 % 0.0 mm
09:47 6.9 °C 7.0 °C 1011.1 hPa Calm     98 % 0.0 mm
09:53 7.1 °C 7.0 °C 1011.1 hPa Calm     98 % 0.0 mm
09:58 7.4 °C 7.0 °C 1011.1 hPa West 7.9 km/h 7.9 km/h 98 % 0.0 mm
10:03 7.7 °C 8.0 °C 1011.1 hPa West 7.9 km/h 7.9 km/h 98 % 0.0 mm
10:08 7.9 °C 8.0 °C 1011.1 hPa West 7.9 km/h 7.9 km/h 98 % 0.0 mm
10:13 8.2 °C 8.0 °C 1011.1 hPa West 7.9 km/h 7.9 km/h 98 % 0.0 mm
10:18 8.4 °C 9.0 °C 1011.1 hPa West 7.9 km/h 7.9 km/h 98 % 0.0 mm
10:23 8.6 °C 9.0 °C 1011.1 hPa West 7.9 km/h 7.9 km/h 98 % 0.0 mm
10:28 8.9 °C 9.0 °C 1011.1 hPa West 7.9 km/h 7.9 km/h 97 % 0.0 mm
10:33 9.1 °C 9.0 °C 1011.1 hPa West 7.9 km/h 7.9 km/h 96 % 0.0 mm
10:38 9.3 °C 9.0 °C 1011.1 hPa West 7.9 km/h 7.9 km/h 95 % 0.0 mm
10:43 9.4 °C 9.0 °C 1011.1 hPa West 7.9 km/h 7.9 km/h 94 % 0.0 mm
10:48 9.7 °C 9.0 °C 1011.1 hPa West 7.9 km/h 7.9 km/h 93 % 0.0 mm
10:53 10.1 °C 9.0 °C 1011.1 hPa West 7.9 km/h 7.9 km/h 92 % 0.0 mm
10:58 9.7 °C 8.0 °C 1011.1 hPa West 7.9 km/h 7.9 km/h 85 % 0.0 mm
11:03 9.5 °C 7.0 °C 1011.1 hPa NNW 4.3 km/h 4.3 km/h 84 % 0.0 mm
11:08 9.4 °C 7.0 °C 1011.1 hPa NNW 4.3 km/h 4.3 km/h 84 % 0.0 mm
11:18 9.8 °C 8.0 °C 1011.1 hPa Calm   6.4 km/h 86 % 0.0 mm
11:23 10.3 °C 8.0 °C 1011.1 hPa Calm   6.4 km/h 86 % 0.0 mm
11:28 10.3 °C 7.0 °C 1011.1 hPa WNW 13.7 km/h 13.7 km/h 81 % 0.0 mm
11:32 10.6 °C 8.0 °C 1011.1 hPa WNW 9.3 km/h 13.7 km/h 83 % 0.0 mm
11:37 10.7 °C 8.0 °C 1011.1 hPa West 10.5 km/h 14.0 km/h 82 % 0.0 mm
11:42 10.8 °C 8.0 °C 1012.1 hPa West 10.1 km/h 14.0 km/h 81 % 0.0 mm
11:47 10.1 °C 6.0 °C 1012.1 hPa West 10.1 km/h 10.5 km/h 74 % 0.0 mm
11:53 10.0 °C 6.0 °C 1012.1 hPa West 10.1 km/h 10.1 km/h 75 % 0.0 mm
11:58 10.3 °C 7.0 °C 1012.1 hPa West 10.1 km/h 10.1 km/h 77 % 0.0 mm
12:03 10.4 °C 6.0 °C 1012.1 hPa West 10.1 km/h 10.1 km/h 76 % 0.0 mm
12:08 10.9 °C 7.0 °C 1012.1 hPa West 10.1 km/h 10.1 km/h 76 % 0.0 mm
12:18 11.7 °C 7.0 °C 1012.1 hPa West 10.1 km/h 10.1 km/h 74 % 0.0 mm
12:23 11.4 °C 6.0 °C 1012.1 hPa West 10.1 km/h 10.1 km/h 69 % 0.0 mm
12:28 11.3 °C 6.0 °C 1013.1 hPa West 10.1 km/h 10.1 km/h 69 % 0.0 mm
12:33 11.0 °C 5.0 °C 1013.1 hPa West 10.1 km/h 10.1 km/h 67 % 0.0 mm
12:38 10.9 °C 5.0 °C 1013.1 hPa West 10.1 km/h 10.1 km/h 67 % 0.0 mm
12:43 11.4 °C 6.0 °C 1013.1 hPa WSW 8.7 km/h 8.7 km/h 70 % 0.0 mm
12:48 11.4 °C 6.0 °C 1013.1 hPa WSW 8.7 km/h 8.7 km/h 70 % 0.0 mm
12:53 11.5 °C 6.0 °C 1013.1 hPa WSW 8.7 km/h 8.7 km/h 67 % 0.0 mm
12:58 11.6 °C 6.0 °C 1013.1 hPa WSW 8.7 km/h 8.7 km/h 67 % 0.0 mm
13:03 11.5 °C 5.0 °C 1013.1 hPa WSW 8.7 km/h 8.7 km/h 63 % 0.0 mm
13:08 11.5 °C 6.0 °C 1013.1 hPa WSW 8.7 km/h 8.7 km/h 65 % 0.0 mm
13:13 11.0 °C 5.0 °C 1013.1 hPa WSW 8.7 km/h 8.7 km/h 65 % 0.0 mm
13:18 11.2 °C 6.0 °C 1013.1 hPa WSW 8.7 km/h 8.7 km/h 67 % 0.0 mm
13:23 11.3 °C 6.0 °C 1013.1 hPa WSW 8.7 km/h 8.7 km/h 67 % 0.0 mm
13:28 11.1 °C 4.0 °C 1013.1 hPa WSW 8.7 km/h 8.7 km/h 61 % 0.0 mm
13:33 11.1 °C 5.0 °C 1013.1 hPa SSW 21.2 km/h 21.2 km/h 64 % 0.0 mm
13:38 11.4 °C 5.0 °C 1013.1 hPa SSW 21.2 km/h 21.2 km/h 65 % 0.0 mm
13:43 11.3 °C 5.0 °C 1013.1 hPa SSW 21.2 km/h 21.2 km/h 65 % 0.0 mm
13:49 11.3 °C 5.0 °C 1013.1 hPa SSW 21.2 km/h 21.2 km/h 63 % 0.0 mm
13:54 11.3 °C 5.0 °C 1013.1 hPa SSW 21.2 km/h 21.2 km/h 64 % 0.0 mm
13:59 11.4 °C 5.0 °C 1013.1 hPa SSW 21.2 km/h 21.2 km/h 64 % 0.0 mm
14:04 11.3 °C 5.0 °C 1013.1 hPa SSW 21.2 km/h 21.2 km/h 64 % 0.0 mm
14:09 11.3 °C 5.0 °C 1013.1 hPa SSW 21.2 km/h 21.2 km/h 63 % 0.0 mm
14:14 11.0 °C 4.0 °C 1013.1 hPa SSW 21.2 km/h 21.2 km/h 61 % 0.0 mm
14:19 11.1 °C 4.0 °C 1013.1 hPa SSW 21.2 km/h 21.2 km/h 61 % 0.0 mm
14:24 10.6 °C 4.0 °C 1013.1 hPa SSW 21.2 km/h 21.2 km/h 62 % 0.0 mm
14:29 10.8 °C 4.0 °C 1012.1 hPa SSW 21.2 km/h 21.2 km/h 63 % 0.0 mm
14:34 11.1 °C 4.0 °C 1012.1 hPa SSW 21.2 km/h 21.2 km/h 60 % 0.0 mm
14:39 11.6 °C 5.0 °C 1012.1 hPa SSW 21.2 km/h 21.2 km/h 62 % 0.0 mm
14:44 11.8 °C 4.0 °C 1012.1 hPa SSW 21.2 km/h 21.2 km/h 60 % 0.0 mm
14:49 11.2 °C 3.0 °C 1012.1 hPa SSW 21.2 km/h 21.2 km/h 57 % 0.0 mm
14:54 10.6 °C 3.0 °C 1012.1 hPa SSW 21.2 km/h 21.2 km/h 58 % 0.0 mm
14:59 10.3 °C 3.0 °C 1012.1 hPa SSW 21.2 km/h 21.2 km/h 61 % 0.0 mm
15:04 10.7 °C 4.0 °C 1012.1 hPa SSW 21.2 km/h 21.2 km/h 62 % 0.0 mm
15:09 10.8 °C 4.0 °C 1012.1 hPa SSW 21.2 km/h 21.2 km/h 64 % 0.0 mm
15:14 11.1 °C 5.0 °C 1012.1 hPa SSW 21.2 km/h 21.2 km/h 65 % 0.0 mm
15:19 11.0 °C 4.0 °C 1012.1 hPa WSW 6.4 km/h 6.4 km/h 62 % 0.0 mm
15:24 11.0 °C 4.0 °C 1012.1 hPa WSW 6.4 km/h 6.4 km/h 62 % 0.0 mm
15:29 11.0 °C 4.0 °C 1013.1 hPa WSW 6.4 km/h 6.4 km/h 62 % 0.0 mm
15:34 11.1 °C 4.0 °C 1013.1 hPa WSW 6.4 km/h 6.4 km/h 63 % 0.0 mm
15:39 11.0 °C 4.0 °C 1013.1 hPa WSW 6.4 km/h 6.4 km/h 62 % 0.0 mm
15:45 10.5 °C 3.0 °C 1013.1 hPa WSW 6.4 km/h 6.4 km/h 61 % 0.0 mm
15:50 10.4 °C 4.0 °C 1013.1 hPa WSW 6.4 km/h 6.4 km/h 63 % 0.0 mm
15:55 10.1 °C 4.0 °C 1013.1 hPa SSW 5.5 km/h 5.5 km/h 64 % 0.0 mm
16:00 9.9 °C 4.0 °C 1013.1 hPa SSW 5.5 km/h 5.5 km/h 65 % 0.0 mm
16:05 9.8 °C 4.0 °C 1013.1 hPa SSW 5.5 km/h 5.5 km/h 67 % 0.0 mm
16:10 9.6 °C 4.0 °C 1013.1 hPa SSW 5.5 km/h 5.5 km/h 68 % 0.0 mm
16:11 9.6 °C 4.0 °C 1014.1 hPa SSW 5.5 km/h 5.5 km/h 68 % 0.0 mm
16:16 9.4 °C 4.0 °C 1014.1 hPa SSW 5.5 km/h 5.5 km/h 68 % 0.0 mm
16:21 9.3 °C 4.0 °C 1014.1 hPa SSW 5.5 km/h 5.5 km/h 69 % 0.0 mm
16:26 9.1 °C 4.0 °C 1014.1 hPa SSW 5.5 km/h 5.5 km/h 70 % 0.0 mm
16:27 9.1 °C 4.0 °C 1014.1 hPa SSW 5.5 km/h 5.5 km/h 70 % 0.0 mm
16:32 9.0 °C 4.0 °C 1014.1 hPa SSW 5.5 km/h 5.5 km/h 71 % 0.0 mm
16:37 8.8 °C 5.0 °C 1014.1 hPa SSW 5.5 km/h 5.5 km/h 72 % 0.0 mm
16:42 8.7 °C 4.0 °C 1014.1 hPa SSW 5.5 km/h 5.5 km/h 73 % 0.0 mm
16:47 8.5 °C 5.0 °C 1014.1 hPa SSW 5.5 km/h 5.5 km/h 74 % 0.0 mm
16:52 8.4 °C 4.0 °C 1014.1 hPa SSW 5.5 km/h 5.5 km/h 74 % 0.0 mm
16:57 8.3 °C 4.0 °C 1014.1 hPa SSW 5.5 km/h 5.5 km/h 74 % 0.0 mm
17:02 8.2 °C 4.0 °C 1014.1 hPa Calm     75 % 0.0 mm
17:07 8.0 °C 4.0 °C 1014.1 hPa WSW 9.0 km/h 9.0 km/h 75 % 0.0 mm
17:12 7.8 °C 4.0 °C 1015.1 hPa WSW 9.0 km/h 9.0 km/h 76 % 0.0 mm
17:17 7.7 °C 4.0 °C 1015.1 hPa WSW 9.0 km/h 9.0 km/h 77 % 0.0 mm
17:22 7.6 °C 4.0 °C 1015.1 hPa WSW 9.0 km/h 9.0 km/h 78 % 0.0 mm
17:27 7.5 °C 4.0 °C 1015.1 hPa WSW 9.0 km/h 9.0 km/h 79 % 0.0 mm
17:32 7.5 °C 5.0 °C 1015.1 hPa WSW 9.0 km/h 9.0 km/h 80 % 0.0 mm
17:37 7.6 °C 5.0 °C 1015.1 hPa WSW 9.0 km/h 9.0 km/h 82 % 0.0 mm
17:42 7.7 °C 5.0 °C 1015.1 hPa WSW 9.0 km/h 9.0 km/h 83 % 0.0 mm
17:47 7.5 °C 5.0 °C 1015.1 hPa WSW 9.0 km/h 9.0 km/h 84 % 0.0 mm
17:52 7.4 °C 5.0 °C 1015.1 hPa WSW 9.0 km/h 9.0 km/h 84 % 0.0 mm
17:57 7.3 °C 5.0 °C 1015.1 hPa WSW 9.0 km/h 9.0 km/h 84 % 0.0 mm
18:03 7.2 °C 5.0 °C 1015.1 hPa WSW 9.0 km/h 9.0 km/h 85 % 0.0 mm
18:08 7.2 °C 5.0 °C 1015.1 hPa WSW 9.0 km/h 9.0 km/h 85 % 0.0 mm
18:13 7.3 °C 5.0 °C 1015.1 hPa WSW 9.0 km/h 9.0 km/h 86 % 0.0 mm
18:18 7.3 °C 5.0 °C 1015.1 hPa WSW 6.1 km/h 6.1 km/h 86 % 0.0 mm
18:23 7.2 °C 5.0 °C 1015.1 hPa WSW 6.1 km/h 6.1 km/h 86 % 0.0 mm
18:28 7.1 °C 5.0 °C 1015.1 hPa WSW 6.1 km/h 6.1 km/h 86 % 0.0 mm
18:33 7.0 °C 5.0 °C 1015.1 hPa WSW 6.1 km/h 6.1 km/h 86 % 0.0 mm
18:38 6.8 °C 5.0 °C 1015.1 hPa WSW 6.1 km/h 6.1 km/h 87 % 0.0 mm
18:43 6.6 °C 5.0 °C 1016.1 hPa WSW 6.1 km/h 6.1 km/h 87 % 0.0 mm
18:48 6.4 °C 5.0 °C 1016.1 hPa Calm     87 % 0.0 mm
18:53 6.3 °C 5.0 °C 1016.1 hPa Calm     87 % 0.3 mm
18:58 6.2 °C 5.0 °C 1016.1 hPa Calm     88 % 0.3 mm
19:03 6.1 °C 5.0 °C 1016.1 hPa Calm     89 % 0.3 mm
19:08 5.9 °C 5.0 °C 1016.1 hPa Calm     89 % 0.3 mm
19:13 5.8 °C 5.0 °C 1016.8 hPa Calm     90 % 0.3 mm
19:19 5.8 °C 5.0 °C 1016.8 hPa Calm     93 % 0.3 mm
19:24 5.8 °C 5.0 °C 1016.8 hPa Calm     92 % 0.3 mm
19:29 5.7 °C 5.0 °C 1016.8 hPa Calm     92 % 0.3 mm
19:34 5.5 °C 5.0 °C 1016.8 hPa Calm     91 % 0.3 mm
19:39 5.4 °C 4.0 °C 1016.8 hPa Calm     91 % 0.3 mm
19:44 5.3 °C 4.0 °C 1016.8 hPa Calm     91 % 0.3 mm
19:49 5.2 °C 4.0 °C 1016.8 hPa Calm     92 % 0.0 mm
19:54 5.2 °C 4.0 °C 1016.8 hPa Calm     93 % 0.0 mm
19:59 5.3 °C 5.0 °C 1016.8 hPa Calm     93 % 0.0 mm
20:04 5.2 °C 4.0 °C 1016.8 hPa Calm     93 % 0.0 mm
20:09 5.1 °C 4.0 °C 1016.8 hPa Calm     93 % 0.0 mm
20:14 5.0 °C 4.0 °C 1016.8 hPa Calm     93 % 0.0 mm
20:19 5.0 °C 4.0 °C 1016.8 hPa Calm     93 % 0.0 mm
20:25 5.1 °C 4.0 °C 1016.8 hPa Calm     94 % 0.0 mm
20:30 5.1 °C 4.0 °C 1016.8 hPa Calm     94 % 0.0 mm
20:35 5.1 °C 5.0 °C 1016.8 hPa Calm     95 % 0.0 mm
20:40 5.1 °C 5.0 °C 1016.8 hPa Calm     95 % 0.0 mm
20:45 5.1 °C 5.0 °C 1016.1 hPa Calm     95 % 0.0 mm
20:50 5.1 °C 5.0 °C 1016.1 hPa Calm     95 % 0.0 mm
20:55 5.0 °C 5.0 °C 1016.1 hPa Calm     95 % 0.0 mm
21:00 5.0 °C 5.0 °C 1016.1 hPa Calm     95 % 0.0 mm
21:05 5.0 °C 5.0 °C 1016.1 hPa Calm     95 % 0.0 mm
21:10 5.1 °C 5.0 °C 1016.1 hPa West 5.0 km/h 5.5 km/h 96 % 0.0 mm
21:15 5.2 °C 5.0 °C 1016.8 hPa West 5.8 km/h 6.9 km/h 96 % 0.0 mm
21:20 5.2 °C 5.0 °C 1016.8 hPa West 5.0 km/h 6.9 km/h 96 % 0.0 mm
21:25 5.1 °C 5.0 °C 1016.8 hPa West 9.7 km/h 9.7 km/h 96 % 0.0 mm
21:30 5.2 °C 5.0 °C 1016.8 hPa West 8.7 km/h 9.7 km/h 96 % 0.0 mm
21:35 5.2 °C 5.0 °C 1016.8 hPa West 1.4 km/h 9.7 km/h 96 % 0.0 mm
21:40 5.3 °C 5.0 °C 1016.8 hPa Calm   8.7 km/h 96 % 0.0 mm
21:45 5.3 °C 5.0 °C 1016.8 hPa Calm     96 % 0.0 mm
21:50 5.6 °C 6.0 °C 1016.8 hPa NNW 10.1 km/h 10.5 km/h 97 % 0.0 mm
21:55 5.6 °C 6.0 °C 1016.8 hPa WNW 3.5 km/h 10.5 km/h 97 % 0.0 mm
22:00 5.6 °C 6.0 °C 1016.8 hPa WSW 6.1 km/h 10.1 km/h 97 % 0.0 mm
22:05 5.5 °C 6.0 °C 1016.8 hPa Calm   9.0 km/h 97 % 0.0 mm
22:10 5.3 °C 5.0 °C 1018.2 hPa West 5.0 km/h 9.0 km/h 96 % 0.0 mm
22:15 5.3 °C 5.0 °C 1018.2 hPa West 1.4 km/h 7.9 km/h 96 % 0.0 mm
22:20 5.1 °C 5.0 °C 1018.2 hPa Calm   7.9 km/h 95 % 0.0 mm
22:26 5.0 °C 5.0 °C 1018.2 hPa Calm   5.8 km/h 95 % 0.0 mm
22:31 4.9 °C 5.0 °C 1018.2 hPa Calm   5.8 km/h 96 % 0.0 mm
22:36 4.9 °C 5.0 °C 1018.2 hPa West 6.1 km/h 6.1 km/h 96 % 0.0 mm
22:41 4.8 °C 4.0 °C 1018.2 hPa West 6.1 km/h 6.1 km/h 96 % 0.0 mm
22:46 4.8 °C 4.0 °C 1018.2 hPa West 6.1 km/h 6.1 km/h 96 % 0.0 mm
22:51 4.8 °C 4.0 °C 1018.2 hPa West 6.1 km/h 6.1 km/h 97 % 0.0 mm
22:56 4.9 °C 5.0 °C 1018.2 hPa West 6.1 km/h 6.1 km/h 97 % 0.0 mm
23:01 5.0 °C 5.0 °C 1018.2 hPa West 6.1 km/h 6.1 km/h 97 % 0.0 mm
23:06 5.0 °C 5.0 °C 1018.2 hPa West 6.1 km/h 6.1 km/h 97 % 0.0 mm
23:11 5.1 °C 5.0 °C 1018.2 hPa West 6.1 km/h 6.1 km/h 97 % 0.0 mm
23:16 5.1 °C 5.0 °C 1018.2 hPa West 6.1 km/h 6.1 km/h 97 % 0.0 mm
23:21 5.1 °C 5.0 °C 1018.2 hPa West 6.1 km/h 6.1 km/h 97 % 0.0 mm
23:26 5.1 °C 5.0 °C 1018.2 hPa West 6.1 km/h 6.1 km/h 97 % 0.0 mm
23:31 5.2 °C 5.0 °C 1018.2 hPa West 6.1 km/h 6.1 km/h 97 % 0.0 mm
23:36 5.2 °C 5.0 °C 1018.2 hPa West 6.1 km/h 6.1 km/h 97 % 0.0 mm
23:41 5.2 °C 5.0 °C 1018.8 hPa West 6.1 km/h 6.1 km/h 97 % 0.0 mm
23:46 5.2 °C 5.0 °C 1018.8 hPa West 6.1 km/h 6.1 km/h 97 % 0.0 mm
23:51 5.3 °C 5.0 °C 1018.8 hPa West 6.1 km/h 6.1 km/h 97 % 0.0 mm
23:56 5.4 °C 6.0 °C 1018.8 hPa West 6.1 km/h 6.1 km/h 98 % 0.0 mm
Le Gheer Warneton
Courtoisie de Weather Underground - 2.5 mb

Mise a jour : 17-12-17 03:05:15
Généré par Cumulus 1.9.4 (1099)